Regional Weather Roundup
Issued by NWS Charleston, SC

Current Version | Previous Version | Text Only | Print | Product List | Glossary Off
Versions: 1 2 3 4 5 6 7 8 9 10 11 12 13 14 15 16 17 18 19 20 21 22 23 24 25 26 27 28 29 30 31 32 33 34 35 36 37 38 39 40 41 42 43 44 45 46 47 48 49 50
315 ASUS42 KCHS 281727 RWRCHS REGIONAL WEATHER ROUNDUP NATIONAL WEATHER SERVICE CHARLESTON SC 100 PM EDT TUE MAR 28 2017 NOTE: "FAIR" INDICATES FEW OR NO CLOUDS BELOW 12,000 FEET WITH NO SIGNIFICANT WEATHER AND/OR OBSTRUCTIONS TO VISIBILITY. NOT ALL STATIONS ARE QUALITY CONTROLLED. USE DATA WITH CAUTION... ESPECIALLY DEWPOINT OBSERVATIONS. SCZ027-030-031-034>040-042>050-281800- ...SOUTHEAST SOUTH CAROLINA... CITY SKY/WX TMP DP RH WIND PRES REMARKS N CHARLESTON MOSUNNY 83 56 39 W12 29.96F WATERFRONT PRK N/A 75 63 66 SW7 29.97 JOHNS ISLAND FAIR 79 64 61 S13 29.98F PINOPOLIS N/A N/A N/A N/A SW9 29.90 MONCKS CORNER FAIR 82 52 34 SW8 29.95F SUMMERVILLE FAIR 82 55 39 SW9 29.96F BEAUFORT MCAS MOSUNNY 84 59 42 SW10G20 29.98F BEAUFORT ARPT FAIR 81 61 50 SW12G17 29.98F HILTON HEAD IS SUNNY 79 64 61 SW9 30.00F WALTERBORO SUNNY 82 55 39 SW10G24 29.97F ALLENDALE FAIR 81 61 50 VRB7 29.96F ...SOUTHERN MIDLANDS AND PEE DEE... CITY SKY/WX TMP DP RH WIND PRES REMARKS GEORGETOWN FAIR 81 54 39 SW15G21 29.96F KINGSTREE PTSUNNY 77 55 47 SW8 29.95F ORANGEBURG PTSUNNY 80 59 48 W14G21 29.96F BARNWELL FAIR 81 63 54 VRB7G15 29.96F AIKEN PTSUNNY 73 59 60 SW15 30.01S MANNING FAIR 77 59 53 SW8 29.95F COLUMBIA MOSUNNY 81 58 45 W14G20 29.94F SUMTER MOSUNNY 80 58 45 W13 29.92F FLORENCE SUNNY 78 61 55 SW10 29.94F MYRTLE BEACH SUNNY 73 64 73 S12 29.97F N MYRTLE BEACH CLOUDY 70 63 78 S15 29.95F $$ GAZ063-065-086>088-099>101-113>116-118-119-134>141-150-281800- ...SOUTHEAST GEORGIA... CITY SKY/WX TMP DP RH WIND PRES REMARKS SAVANNAH ARPT MOSUNNY 83 56 39 SW10G21 30.00F HUNTER AAF SUNNY 83 63 50 W10G21 29.98F FORT STEWART SUNNY 81 57 42 W15 29.99F STATESBORO PTSUNNY 81 64 56 W10G20 30.00F SYLVANIA MOSUNNY N/A N/A N/A W10G18 29.99F CLAXTON FAIR 80 66 61 S14 30.01F ...CSRA...CENTRAL AND FAR SOUTHEAST GEORGIA... CITY SKY/WX TMP DP RH WIND PRES REMARKS THOMSON N/A 76 60 57 NW8 30.03F AUGUSTA-BUSH PTSUNNY 80 62 54 W12 29.97F AUGUSTA-DANIEL CLOUDY 76 58 53 VRB7 29.99F SWAINSBORO PTSUNNY 81 61 50 W8G16 30.00F VIDALIA PTSUNNY 81 63 54 SW13G18 30.01F EASTMAN FAIR 81 48 31 W8G16 30.04F HAZLEHURST FAIR 82 63 53 SW7 30.01F ALMA MOSUNNY 77 63 61 W12 30.04F WAYCROSS MOSUNNY 84 65 53 NW9G18 30.03F JESUP FAIR 81 57 44 W9G22 30.02F BAXLEY PTSUNNY 79 66 65 W9 30.02F BRUNSWICK MOSUNNY 82 63 51 W9G16 30.02F SAINT SIMONS SUNNY 81 58 45 W9 30.03F $$ SCZ027-028-034-036>038-045-046-048>050-GAZ119-141-281800- ...LAKE AND SUPPLEMENTAL COASTAL OBSERVATIONS... STATION/POSITION TIME TEMP WIND PRES WAVE SWELL AIR SEA DIR/SP/G HT/PER HT/PER/DIR (UTC) (F) (DEG/KT/KT) (MB) (FT/S) (FT/S/D) WINYAH BAY 1630 78 230/ 12 1015.0S LAKE MURRAY 1650 74 270/ 13/ 16 1013.5F ACE BASIN NERRS 1630 78 240/ 4 1016.0S FORT PULASKI 1700 78 65 220/ 5/ 9 1016.1 SAPELO ISLAND 1700 78 250/ 9 1017.0 $$ ANZ835-935-AMZ111-154-330-350-352-354-370-450-454-472-281800- ...C-MAN AND BUOY OBSERVATIONS... STATION/POSITION TIME TEMP WIND PRES WAVE SWELL AIR SEA DIR/SP/G HT/PER HT/PER/DIR (UTC) (F) (DEG/KT/KT) (MB) (FT/S) (FT/S/D) BUOY 41004 NOT AVBL BUOY 41008 NOT AVBL FOLLY BEACH CMAN 1700 66 210/ 15/ 17 1016.0F CAPERS NEARSHORE NOT AVBL FRIPP NEARSHORE NOT AVBL STATION/POSITION TIME TEMP WIND PRES WAVE SWELL AIR SEA DIR/SP/G HT/PER HT/PER/DIR (UTC) (F) (DEG/KT/KT) (MB) (FT/S) (FT/S/D) 5E ST. MARYS GA NOT AVBL FRYING PAN BUOY NOT AVBL BUOY 41025 NOT AVBL CAPE LOOKOUT NC 1700 67 230/ 9/ 11 1014.6F BUOY 41002 NOT AVBL BUOY 41010 NOT AVBL ST AUGUSTINE FL 1700 69 68 120/ 11/ 11 1018.3F $$

USA.gov is the U.S. government's official web portal to all federal, state and local government web resources and services.